Home > Weather > Hinckley > Past weeks

Flag for United Kingdom Past Weather in Hinckley, England, United Kingdom — Yesterday and Last 2 Weeks

Now
67 °F

Mild.


Feels Like: 67 °F
Forecast: 53 / 69 °F
Wind: 12 mph from West

Location: Church Lawford

Current Time: Jul 25, 2016 at 3:04:21 PM

Latest Report: Jul 25, 2016 at 2:00 PM


Visibility: 25 mi

Pressure: 30.09 "Hg

Humidity: 53%

Dew Point: 49 °F

Location of HinckleyLocation

Past Weather in Hinckley — Graph

°F

Hinckley Temperature Yesterday

Maximum temperature yesterday: 72 °F (at 2:00 PM)
Minimum temperature yesterday: 55 °F (at 4:00 AM)
Average temperature yesterday: 65 °F

High & Low Weather Summary for the Past Weeks

 TemperatureHumidityPressure
High89 °F (Jul 19, 4:00 PM)100% (Jul 23, 5:00 AM)30.32 "Hg (Jul 23, 5:00 AM)
Low47 °F (Jul 13, 5:00 AM)42% (Jul 20, 4:00 PM)29.60 "Hg (Jul 11, 5:00 AM)
Average65 °F76%30.04 "Hg
* Reported Jul 10 1:00 PM — Jul 25 1:00 PM, Hinckley, Weather by CustomWeather, © 2016

Note: Actual official high and low records may vary slightly from our data, if they occured in-between our weather recording intervals... More about our weather records

Advertising

Hinckley Weather History for the Previous 24 Hours

Scroll right to see more
 ConditionsComfort  
Time TempWeatherWind HumidityBarometerVisibility
1:00 PM
Mon, Jul 25
68 °FMild.12 mph54%30.08 "Hg12 mi
12:00 PM68 °FMild.8 mph56%30.08 "Hg17 mi
11:00 AM68 °FMild.10 mph62%30.08 "Hg16 mi
10:00 AM63 °FMild.10 mph70%30.08 "Hg13 mi
9:00 AM62 °FCool.8 mph78%30.07 "Hg28 mi
8:00 AM60 °FCool.8 mph84%30.07 "Hg16 mi
7:00 AM57 °FCool.6 mph94%30.06 "Hg10 mi
6:00 AM55 °FCool.3 mph96%30.05 "Hg8 mi
5:00 AM55 °FCool.2 mph95%30.04 "Hg7 mi
4:00 AM56 °FCool.3 mph92%30.04 "Hg9 mi
3:00 AM57 °FCool.3 mph89%30.04 "Hg12 mi
2:00 AM58 °FCool.5 mph88%30.04 "Hg12 mi
1:00 AM57 °FCool.2 mph89%30.03 "Hg10 mi
12:00 AM61 °FCool.7 mph81%30.03 "Hg25 mi
11:00 PM
Sun, Jul 24
62 °FMild.7 mph85%30.03 "Hg28 mi
10:00 PM64 °FMild.5 mph89%30.02 "Hg19 mi
9:00 PM66 °FMild.5 mph86%30.01 "Hg19 mi
8:00 PM66 °FSmoke.3 mph87%30.01 "Hg11 mi
7:00 PM68 °FMild.6 mph78%30.00 "Hg31 mi
6:00 PM69 °FMild.7 mph74%30.00 "Hg19 mi
5:00 PM69 °FMild.6 mph74%30.01 "Hg28 mi
4:00 PM71 °FMild.7 mph67%30.02 "Hg28 mi
3:00 PM70 °FMild.8 mph64%30.03 "Hg22 mi
Weather by CustomWeather, © 2016

See weather overviewHow to use our weather pages